星链-32797 (STARLINK-32797)

导读

STARLINK-32797是美国太空探索技术公司SpaceX星链星座的成员,于2025年1月27日发射入轨。星链项目旨在构建全球卫星互联网星座,为全球提供低延迟、高速率的宽带互联网服务,该卫星加入后,进一步扩充了星链星座的在轨规模,助力完善全球网络覆盖能力。

基本信息
目录编号:
62843
目录名称:
STARLINK-32797
国际标识:
2025-019Q
轨道中心:
EARTH
卫星名称:
星链-32797
卫星全名:
星链-32797 (STARLINK-32797)
卫星状态:
在轨 (已飞行592 天)
发射日期:
2025-01-27 UTC
国别 :
美国 (US)
星等 :
--
该卫星已列入 空间交会检测服务 Space Conjunction Data Service (SCDS) ,当前飞行风险评估等级: 高风险
轨道信息
数据来源 国际轨道数据 AOE轨道数据
星历时间 2026-09-10T16:29:17+0800
1天前
查看轨道信息
2026-09-04T23:00:00+0800
6天前
查看轨道信息
半长轴 6861.169km 6861.211km
偏心率 0.0001463 0.0000034
轨道倾角 42.997° 43.002°
近地点辐角 276.468° 337.486°
升交点赤经 126.032° 158.389°
平近点角 83.600° 162.061°
近地点 482.028km 483.05km
远地点 484.036km 483.098km
周期 94.266分钟 94.267分钟
每日圈数 15.275858 15.275719
详细信息
固有亮度:
5
最大亮度:
2.5
卫星平台:
Starlink V1.0
覆盖范围:
全球
运营商:
太空探索技术公司
运营商所在国:
美国
制造商(研发单位):
太空探索技术公司
制造商所在国:
美国
使用方式:
暂无
卫星简介
Starlink 计划是 SpaceX 推出的全球卫星互联网项目,通过发射低轨道卫星,为全球尤其是偏远地区提供高速、低延迟的互联网服务。自 2019 年起,Starlink 已部署数千颗卫星,旨在缩小全球数字鸿沟,推动互联网普及。该项目还为军事、航空等行业提供通信支持,带来广泛经济效益。
2D轨道图
3D轨道图
轨道高度分析图
轨道倾角分析图
轨道综合分析图
查看轨道综合分析图
交会数据列表
事件ID 空间交会对象 最接近时刻(TCA) 交会距离 交会风险概率(CRP) 交会风险指数(CRI) 操作
CDM_260913-071905-949006-284321
2026-09-13T
07:19:16+0000
0.393 km
远距离
2.39712E-4 高风险 0.83
CDM_260912-214606-284306-647621
2026-09-12T
21:46:05+0000
0.877 km
远距离
3.245758E-5 中风险 0.65
CDM_260912-063305-974806-284321
2026-09-12T
06:33:19+0000
0.853 km
远距离
2.927247E-5 中风险 0.64
CDM_260912-175805-949006-284321
2026-09-12T
17:58:58+0000
0.872 km
远距离
2.757409E-5 中风险 0.64
CDM_260912-224605-722606-284321
2026-09-12T
22:46:06+0000
0.856 km
远距离
2.163196E-5 中风险 0.62
CDM_260912-230105-974806-284321
2026-09-12T
23:01:56+0000
0.950 km
远距离
2.028432E-5 中风险 0.61
CDM_260912-080705-974806-284321
2026-09-12T
08:07:28+0000
0.963 km
远距离
1.938523E-5 中风险 0.61
CDM_260911-081005-370006-284321
2026-09-11T
08:10:15+0000
0.771 km
远距离
1.479986E-5 中风险 0.58
CDM_260912-162405-949006-284321
2026-09-12T
16:24:48+0000
1.083 km
极远距离
1.312332E-5 中风险 0.57
CDM_260913-085805-722606-284321
2026-09-13T
08:58:06+0000
1.050 km
极远距离
1.077942E-5 中风险 0.56
与全量物体交会距离演化趋势
与全量物体交会风险概率演化趋势